Regional Weather Roundup
Issued by NWS

Home | Current Version | Previous Version | Text Only | Print | Product List | Glossary Off
Versions: 1 2 3 4 5 6 7 8 9 10 11 12 13 14 15 16 17 18 19 20 21 22 23 24 25 26 27 28 29 30 31 32 33 34 35 36 37 38 39 40 41 42 43 44 45 46 47 48 49 50

000
ASUS43 KFSD 040410
RWRSD

WEATHER ROUNDUP FOR SOUTH DAKOTA
NATIONAL WEATHER SERVICE SIOUX FALLS SD
1000 PM CST TUE MAR 03 2015

NOTE: "FAIR" INDICATES FEW OR NO CLOUDS BELOW 12,000 FEET WITH NO
SIGNIFICANT WEATHER AND/OR OBSTRUCTIONS TO VISIBILITY.


SDZ001>005-009-010-012>017-040500-
NORTHWEST AND NORTH CENTRAL SOUTH DAKOTA

CITY           SKY/WX    TMP DP  RH WIND       PRES   REMARKS
BUFFALO          N/A      2  -6  69 W12       29.92S WCI -15
FAITH            N/A      4  -6  63 W8        30.03R WCI  -9
MOBRIDGE       CLEAR      4  -2  76 NW3       30.04R
$$

SDZ012>016-024>037-041>051-057-063-072>074-040500-
SOUTHWEST AND SOUTH CENTRAL SOUTH DAKOTA

CITY           SKY/WX    TMP DP  RH WIND       PRES   REMARKS
RAPID CTY ARPT CLEAR      3  -5  69 W5        30.04R WCI  -6
PIERRE         CLEAR      5  -4  66 NW8       30.09R WCI  -8
CUSTER         CLEAR     -1  -8  72 W6        29.86R WCI -13
ELLSWORTH AFB  PTCLDY     5  -6  62 W6        30.02R WCI  -6
PHILIP         CLEAR      9  -2  61 W12       30.09S WCI  -6
PINE RIDGE     CLOUDY    10   5  80 CALM      30.05R
SPEARFISH        N/A    N/A N/A N/A MISG        N/A
WINNER         FAIR      13   1  59 NW10      30.09R WCI   0
$$

SDZ004>011-016>023-039-040-040500-
NORTHEAST SOUTH DAKOTA

CITY           SKY/WX    TMP DP  RH WIND       PRES   REMARKS
ABERDEEN       PTCLDY     3  -6  66 NW7       30.10R WCI  -9
WATERTOWN      CLEAR      2  -6  69 NW7       30.04R WCI -11
SISSETON         N/A      3  -6  66 NW16      30.06S WCI -16
$$

SDZ017-020-022-023-036>040-048>070-040500-
SOUTHEAST SOUTH DAKOTA

CITY           SKY/WX    TMP DP  RH WIND       PRES   REMARKS
SIOUX FALLS    MOCLDY     7   0  73 NW7       30.08R WCI  -5
HURON          CLEAR     -1  -6  79 NW5       30.11R WCI -11
CHAMBERLAIN    CLEAR     10  -1  61 NW6       30.10R WCI   0
MITCHELL       PTCLDY     9   2  73 NW7       30.12R WCI  -2
YANKTON        PTCLDY    10   1  67 NW3       30.12R
$$

ABBREVIATIONS USED IN REMARKS
   TC - TEMPERATURE IN CELSIUS
  WCI - WIND CHILL INDEX
   HX - HEAT INDEX
  VSB - VISIBILITY




USA.gov is the U.S. government's official web portal to all federal, state and local government web resources and services.